DELTA 1 DEB, 7181

Orbit data source: Space-Track

DELTA 1 DEB, 7181 is space debris in SSO originally from a launch on Tue, 06 Nov 1973 UTC launched from the Air Force Western Test Range (AFWTR). Debris objects in space refer to the collection of defunct objects orbiting the Earth. Examples of debris include non-operational satellites, rocket bodies, and fragments generated from explosions, collisions, or faulty payload assembly.

Loading next visibility...
Identifier
7181, 1973-086ES
Orbit
SSO
Country
Flag of USUS
Related business
Manufacturer
Unknown
Mission
Spacecraft
Bus & Motor
Unknown
Mass
Unknown
Launch date (UTC)
1973-11-06 (53 years ago)
Launch vehicle
Unknown
Launch site
Air Force Western Test Range (AFWTR)
Object type
Payload
Rocket body
Debris
Shape & HBR
Unknown shape, 0.1 m
Radar Cross Section
Medium (>0.1 m² and <1 m²)

Expand to show TLE details & history
Last TLE update: 1 day ago

TLE from 1 day ago
0 DELTA 1 DEB
1 07181U 73086ES  26206.35235395  .00000178  00000-0  13330-2 0  9990
2 07181 102.3948 347.1203 0102578  29.9341 357.8910 12.57240058415217
Epoch: 2026-07-25T08:27Z
TLE epoch observation values (Epoch: 2026-07-25T08:27:23.381Z)
Latitude
27.11896°
Longitude
-89.22318°
Altitude
1,357.261 km
Speed
7.219 km/s
True Right ascension
22h 42m 45s
True Declination
26° 59' 26"
Sunlit
Object was in daylight at epoch
Visualization orbit readout
Latitude
Unknown
Longitude
Unknown
Altitude
Unknown
Speed
Unknown
Apparent Right ascension
Unknown
Apparent Declination
Unknown
Sunlit
N/A
Visualization observer readout
Local Sidereal Time
23:16:03
Azimuth
Unknown
Elevation
Unknown
Doppler factor
Unknown
Orbital elements
Apogee altitude
1,512.047 km
Perigee altitude
1,351.819 km
Semi-major axis
7,810.07 km
Eccentricity
0.01026
Inclination
102.3948°
RAAN
347.1203°
Arg. of periapsis
29.9341°
True anomaly
357.84718°
Mean anomaly
357.891°
Eccentric anomaly
357.86915°
Mean motion
3.14457 °/min
Orbital period
114.48 mins
BSTAR
0.001333
Loading maneuver chart data...
Computing Atmospheric mass density...
Loading historical data...
Loading historical data...
Loading historical data...
Loading historical data...
Loading historical data...
Loading historical data...
Loading historical data...

Documentation

Showing up to 5 results
|